Showing default

UKUBE 1, 40074

Orbit data source: Space-Track

UKUBE 1, 40074 is a payload satellite owned by UKSA (UK) in SSO that was launched on Tue, 08 Jul 2014 UTC via a SOYUZ-2-1B launch vehicle from the Tyuratam Missile And Space Complex (TTMTR). Payload-class satellites include a variety of spacecraft equipped with specific instruments for various scientific and technological missions. These include communications satellites like Starlink; space stations such as the ISS; scientific satellites like the Hubble; Earth observation satellites from companies like Planet Labs, Umbra, and HawkEye 360; GPS; miniature CubeSats for education and research; and military/defense satellites.

Loading next visibility...
Identifier
40074, 2014-037F
Orbit
SSO
Country
Flag of UKUK
Related business
Manufacturer
ClydeSpace
Mission
Operational Commercial Technology
Bus & Motor
CUBESAT 3U, Unknown motor
Mass
4 kg wet, 4 kg dry
Launch date (UTC)
2014-07-08 (11 years ago)
Launch vehicle
SOYUZ-2-1B
Launch site
Tyuratam Missile And Space Complex (TTMTR)
Object type
Payload
Rocket body
Debris
Shape & HBR
Box + 1 Pan, 0.2 m
Radar Cross Section
0.038 m², Medium (>0.1 m² and < 1m²)

Expand to show TLE details & history
Last TLE update: 19 hours ago

TLE from 19 hours ago
0 UKUBE 1
1 40074U 14037F   25258.35928508  .00014510  00000-0  97153-3 0  9991
2 40074  98.4032 229.3652 0003013  60.5404 299.6121 15.07032466607061
Epoch: 2025-09-15T08:37Z
TLE epoch observation values (Epoch: 2025-09-15T08:37:22.23Z)
Latitude
-0.00009°
Longitude
105.45752°
Altitude
547.286 km
Speed
7.589 km/s
True Right ascension
15h 17m 27s
True Declination
0° 00' 00"
Sunlit
Object was in daylight at epoch
Visualization orbit readout
Latitude
Unknown
Longitude
Unknown
Altitude
Unknown
Speed
Unknown
Apparent Right ascension
Unknown
Apparent Declination
Unknown
Sunlit
N/A
Visualization observer readout
Local Sidereal Time
20:04:08
Azimuth
Unknown
Elevation
Unknown
Doppler factor
Unknown
Orbital elements
Apogee altitude
544.387 km
Perigee altitude
540.217 km
Semi-major axis
6,920.439 km
Eccentricity
0.0003
Inclination
98.4032°
RAAN
229.3652°
Arg. of periapsis
60.5404°
True anomaly
299.58208°
Mean anomaly
299.6121°
Eccentric anomaly
299.59709°
Mean motion
3.77001 °/min
Orbital period
95.49 mins
BSTAR
0.00097153
Loading maneuver chart data...
Computing Atmospheric mass density...
Loading historical data...
Loading historical data...
Loading historical data...
Loading historical data...
Loading historical data...
Loading historical data...
Loading historical data...

Documentation

Showing up to 5 results
|